K4FB Weather Reports


time (UTC)temp
F
wind
direction
speed
knots
gust
knots
rain 1hr
in
rain 24hr
in
rain mn
in
humidity
%
barometer
mb
20260509154004 93 198 4.3 11.3 0.00 0.00 0.00 51 1014.6
20260509153504 92 168 4.3 9.6 0.00 0.00 0.00 51 1014.7
20260509153011 92 192 2.6 7.8 0.00 0.00 0.00 55 1014.8
20260509152504 91 101 3.5 8.7 0.00 0.00 0.00 55 1014.8
20260509152004 91 187 4.3 8.7 0.00 0.00 0.00 53 1014.9
20260509151507 91 169 6.1 11.3 0.00 0.00 0.00 53 1014.9
20260509151003 90 194 5.2 11.3 0.00 0.00 0.00 57 1015.0
20260509150504 90 156 3.5 9.6 0.00 0.00 0.00 59 1015.0
20260509150011 89 207 5.2 9.6 0.00 0.00 0.00 57 1015.0
20260509145503 89 176 3.5 9.6 0.00 0.00 0.00 62 1015.0
20260509145002 89 204 5.2 7.8 0.00 0.00 0.00 63 1015.0
20260509144519 88 213 3.5 7.8 0.00 0.00 0.00 61 1015.0
20260509144008 87 190 1.7 7.0 0.00 0.00 0.00 64 1015.0
20260509143504 86 189 3.5 7.0 0.00 0.00 0.00 66 1015.1
20260509143006 86 196 0.9 4.3 0.00 0.00 0.00 70 1015.0
20260509142503 85 166 1.7 6.1 0.00 0.00 0.00 67 1014.9
20260509142001 85 175 2.6 5.2 0.00 0.00 0.00 72 1014.8
20260509141508 84 198 0.9 5.2 0.00 0.00 0.00 72 1015.0
20260509141005 83 146 1.7 5.2 0.00 0.00 0.00 73 1015.0
20260509140503 83 118 0.9 4.3 0.00 0.00 0.00 75 1015.1
20260509140007 82 128 0.0 1.7 0.00 0.00 0.00 75 1015.1
20260509135507 82 290 0.0 4.3 0.00 0.00 0.00 74 1015.2
20260509135004 81 72 0.9 4.3 0.00 0.00 0.00 78 1015.2
20260509134504 81 65 0.9 3.5 0.00 0.00 0.00 79 1015.2
20260509134004 80 201 0.9 3.5 0.00 0.00 0.00 79 1015.2
20260509133510 80 67 0.9 3.5 0.00 0.00 0.00 81 1015.2
20260509133022 79 63 0.0 3.5 0.00 0.00 0.00 80 1015.1
20260509132503 79 54 0.0 2.6 0.00 0.00 0.00 83 1015.0
20260509132002 79 157 0.0 2.6 0.00 0.00 0.00 83 1015.0
20260509131003 78 9 0.9 3.5 0.00 0.00 0.00 83 1015.0
20260509130504 77 55 0.9 2.6 0.00 0.00 0.00 88 1015.0
20260509130006 76 98 0.9 2.6 0.00 0.00 0.00 88 1015.0
20260509125504 76 13 0.0 1.7 0.00 0.00 0.00 90 1015.0
20260509125006 75 64 0.0 0.0 0.00 0.00 0.00 91 1015.0
20260509124512 74 188 0.0 0.0 0.00 0.00 0.00 93 1015.0
20260509124004 74 192 0.0 0.0 0.00 0.00 0.00 93 1014.9
20260509123507 74 190 0.0 0.0 0.00 0.00 0.00 94 1014.9
20260509123008 74 190 0.0 0.0 0.00 0.00 0.00 95 1014.8
20260509122505 74 190 0.0 0.9 0.00 0.00 0.00 96 1014.9
20260509122007 73 189 0.0 0.9 0.00 0.00 0.00 96 1014.9
20260509121003 73 189 0.0 1.7 0.00 0.00 0.00 96 1014.5
20260509120503 72 189 0.0 1.7 0.00 0.00 0.00 96 1014.5
20260509120006 72 189 0.0 2.6 0.00 0.00 0.00 96 1014.3
20260509115503 72 189 0.0 2.6 0.00 0.00 0.00 96 1014.4
20260509115004 72 190 0.0 3.5 0.00 0.00 0.00 96 1014.5
20260509114508 72 189 1.7 3.5 0.00 0.00 0.00 96 1014.3
20260509114004 71 182 0.0 1.7 0.00 0.00 0.00 96 1014.3
20260509113504 71 183 0.0 1.7 0.00 0.00 0.00 96 1014.2
20260509113016 70 182 0.0 1.7 0.00 0.00 0.00 96 1014.0
20260509112507 70 183 0.0 1.7 0.00 0.00 0.00 95 1013.9
20260509112004 70 207 0.0 0.0 0.00 0.00 0.00 95 1013.9
20260509111513 69 207 0.0 0.0 0.00 0.00 0.00 95 1013.8
20260509111006 69 207 0.0 0.0 0.00 0.00 0.00 95 1013.8
20260509110500 69 185 0.0 0.0 0.00 0.00 0.00 94 1013.7
20260509110019 69 185 0.0 0.0 0.00 0.00 0.00 94 1013.7
20260509105503 69 185 0.0 0.0 0.00 0.00 0.00 94 1013.6
20260509105003 69 185 0.0 0.0 0.00 0.00 0.00 94 1013.7
20260509104508 69 185 0.0 0.0 0.00 0.00 0.00 94 1013.5
20260509104006 70 185 0.0 0.0 0.00 0.00 0.00 94 1013.4
20260509103502 70 185 0.0 0.0 0.00 0.00 0.00 94 1013.4
20260509103017 70 185 0.0 0.0 0.00 0.00 0.00 94 1013.4
20260509102505 70 185 0.0 0.0 0.00 0.00 0.00 94 1013.4
20260509102008 70 185 0.0 0.0 0.00 0.00 0.00 94 1013.4
20260509101520 70 185 0.0 0.0 0.00 0.00 0.00 94 1013.4
20260509101004 70 185 0.0 0.0 0.00 0.00 0.00 93 1013.4
20260509100503 70 185 0.0 1.7 0.00 0.00 0.00 94 1013.5
20260509100023 70 185 0.0 1.7 0.00 0.00 0.00 93 1013.7
20260509095507 70 185 0.9 1.7 0.00 0.00 0.00 93 1013.6
20260509095010 70 281 0.0 0.0 0.00 0.00 0.00 93 1013.5
20260509094521 70 281 0.0 0.0 0.00 0.00 0.00 93 1013.3
20260509094003 70 281 0.0 0.0 0.00 0.00 0.00 93 1013.5
20260509093504 70 281 0.0 0.0 0.00 0.00 0.00 93 1013.7
20260509093013 71 281 0.0 0.0 0.00 0.00 0.00 93 1013.5
20260509092507 71 281 0.0 0.0 0.00 0.00 0.00 93 1013.6
20260509092007 71 281 0.0 0.0 0.00 0.00 0.00 93 1013.6
20260509091512 71 281 0.0 2.6 0.00 0.00 0.00 94 1013.4
20260509091007 71 281 0.0 3.5 0.00 0.00 0.00 94 1013.6
20260509090507 71 287 1.7 3.5 0.00 0.00 0.00 93 1013.6
20260509090010 70 292 0.0 0.9 0.00 0.00 0.00 92 1013.8
20260509085503 71 291 0.0 0.0 0.00 0.00 0.00 91 1013.7
20260509085006 71 291 0.0 0.0 0.00 0.00 0.00 92 1013.7
20260509084533 71 291 0.0 0.0 0.00 0.00 0.00 92 1013.8
20260509084005 71 291 0.0 0.0 0.00 0.00 0.00 91 1013.7
20260509083033 71 291 0.0 0.0 0.00 0.00 0.00 91 1013.8
20260509082509 72 291 0.0 0.0 0.00 0.00 0.00 91 1013.8
20260509082006 72 291 0.0 0.0 0.00 0.00 0.00 91 1013.9
20260509081516 72 291 0.0 0.0 0.00 0.00 0.00 91 1013.9
20260509081008 72 291 0.0 0.0 0.00 0.00 0.00 90 1013.9
20260509080504 72 291 0.0 0.0 0.00 0.00 0.00 90 1013.9
20260509080032 72 291 0.0 0.0 0.00 0.00 0.00 90 1014.0
20260509075509 72 291 0.0 0.0 0.00 0.00 0.00 90 1014.1
20260509075007 73 291 0.0 0.0 0.00 0.00 0.00 90 1014.1
20260509074516 73 291 0.0 0.0 0.00 0.00 0.00 89 1014.1
20260509074007 73 291 0.0 0.0 0.00 0.00 0.00 90 1014.1
20260509073507 73 291 0.0 0.0 0.00 0.00 0.00 89 1014.1
20260509072508 74 292 0.0 0.0 0.00 0.00 0.00 88 1014.2
20260509072010 74 292 0.0 0.0 0.00 0.00 0.00 88 1014.1
20260509071513 74 292 0.0 1.7 0.00 0.00 0.00 88 1014.2
20260509071003 74 292 0.0 1.7 0.00 0.00 0.00 88 1014.2
20260509070504 74 292 0.0 1.7 0.00 0.00 0.00 88 1014.3
20260509070020 75 290 0.0 2.6 0.00 0.00 0.00 88 1014.3
20260509065505 75 290 0.0 3.5 0.00 0.00 0.00 87 1014.3
20260509065007 75 286 0.9 3.5 0.00 0.00 0.00 87 1014.4
20260509064525 75 305 0.0 2.6 0.00 0.00 0.00 87 1014.5
20260509064008 75 305 0.0 2.6 0.00 0.00 0.00 87 1014.5
20260509063506 75 315 0.0 4.3 0.00 0.00 0.00 87 1014.5
20260509063020 75 314 0.0 4.3 0.00 0.00 0.00 87 1014.5
20260509062511 75 305 0.9 3.5 0.00 0.00 0.00 87 1014.5
20260509062009 75 314 0.9 3.5 0.00 0.00 0.00 86 1014.6
20260509061522 76 330 0.9 5.2 0.00 0.00 0.00 86 1014.7
20260509061007 76 323 1.7 5.2 0.00 0.00 0.00 86 1014.5
20260509060508 76 325 1.7 4.3 0.00 0.00 0.00 86 1014.7
20260509060013 76 317 0.9 4.3 0.00 0.00 0.00 86 1014.8
20260509055507 76 306 1.7 4.3 0.00 0.00 0.00 86 1014.9
20260509055007 76 321 0.9 4.3 0.00 0.00 0.00 85 1014.9
20260509054520 76 312 0.9 4.3 0.00 0.00 0.00 85 1014.9
20260509054005 76 298 0.0 3.5 0.00 0.00 0.00 85 1015.0
20260509053507 76 312 0.0 2.6 0.00 0.00 0.00 85 1015.1
20260509053030 76 296 0.0 3.5 0.00 0.00 0.00 85 1015.2
20260509052008 76 279 0.0 3.5 0.00 0.00 0.00 84 1015.2
20260509051525 76 300 0.9 3.5 0.00 0.00 0.00 84 1015.3
20260509051009 76 310 0.9 3.5 0.00 0.00 0.00 83 1015.3
20260509050505 77 295 0.9 3.5 0.00 0.00 0.00 83 1015.4
20260509050035 77 284 0.0 2.6 0.00 0.00 0.00 83 1015.4
20260509045508 77 297 0.0 3.5 0.00 0.00 0.00 82 1015.6
20260509045004 77 288 0.9 3.5 0.00 0.00 0.00 82 1015.6
20260509044520 77 274 0.9 3.5 0.00 0.00 0.00 82 1015.6
20260509044007 77 336 0.0 7.0 0.00 0.00 0.00 81 1015.6
20260509043504 78 311 0.9 7.0 0.00 0.00 0.00 81 1015.8
20260509043020 78 324 0.9 4.3 0.00 0.00 0.00 80 1015.8
20260509042508 78 298 0.0 4.3 0.00 0.00 0.00 80 1015.8
20260509042008 78 311 1.7 7.8 0.00 0.00 0.00 79 1015.9
20260509041526 78 305 1.7 7.8 0.00 0.00 0.00 79 1015.8
20260509041007 78 313 2.6 7.0 0.00 0.00 0.00 78 1015.8
20260509040507 78 292 1.7 5.2 0.00 0.00 0.00 78 1015.9
20260509040028 78 352 2.6 7.0 0.00 0.00 0.00 77 1015.9
20260509035507 78 292 0.9 7.8 0.00 0.00 0.00 77 1015.8
20260509035007 78 333 2.6 7.8 0.00 0.00 0.00 76 1015.9
20260509034527 79 302 4.3 8.7 0.00 0.00 0.00 76 1015.9
20260509034010 79 329 1.7 8.7 0.00 0.00 0.00 75 1015.9
20260509033507 79 350 2.6 7.8 0.00 0.00 0.00 73 1015.8
20260509033018 79 317 2.6 7.8 0.00 0.00 0.00 73 1015.9
20260509032510 79 341 2.6 8.7 0.00 0.00 0.00 71 1015.8
20260509032007 79 14 2.6 8.7 0.00 0.00 0.00 71 1015.8
20260509031526 80 360 3.5 7.8 0.00 0.00 0.00 71 1015.7
20260509031012 80 360 3.5 8.7 0.00 0.00 0.00 71 1015.7
20260509030507 80 333 4.3 9.6 0.00 0.00 0.00 70 1015.8
20260509030034 80 332 5.2 9.6 0.00 0.00 0.00 69 1015.8
20260509025507 80 317 5.2 11.3 0.00 0.00 0.00 69 1015.7
20260509025011 81 318 5.2 11.3 0.00 0.00 0.00 69 1015.6
20260509023509 81 321 1.7 9.6 0.00 0.00 0.00 67 1015.7
20260509023030 81 352 4.3 9.6 0.00 0.00 0.00 67 1015.5
20260509022508 81 352 4.3 9.6 0.00 0.00 0.00 67 1015.3
20260509022009 81 325 3.5 9.6 0.00 0.00 0.00 67 1015.2
20260509021521 81 331 5.2 10.4 0.00 0.00 0.00 67 1015.1
20260509021007 82 312 3.5 10.4 0.00 0.00 0.00 66 1015.1
20260509020514 82 312 2.6 7.8 0.00 0.00 0.00 66 1014.9
20260509020027 82 292 2.6 10.4 0.00 0.00 0.00 65 1014.7
20260509015507 82 322 3.5 10.4 0.00 0.00 0.00 65 1014.6
20260509015009 82 341 1.7 8.7 0.00 0.00 0.00 65 1014.6
20260509014523 82 302 2.6 8.7 0.00 0.00 0.00 64 1014.7
20260509014010 83 307 2.6 7.8 0.00 0.00 0.00 64 1014.6
20260509013509 83 316 2.6 7.8 0.00 0.00 0.00 63 1014.4
20260509012510 83 339 2.6 8.7 0.00 0.00 0.00 60 1014.3
20260509012012 83 319 2.6 9.6 0.00 0.00 0.00 60 1014.3
20260509011522 84 297 1.7 9.6 0.00 0.00 0.00 59 1014.3
20260509011007 84 319 2.6 8.7 0.00 0.00 0.00 58 1014.2
20260509010511 84 297 3.5 8.7 0.00 0.00 0.00 59 1014.2
20260509010022 84 309 1.7 7.8 0.00 0.00 0.00 59 1014.3
20260509005508 84 295 1.7 7.8 0.00 0.00 0.00 59 1014.3
20260509005010 84 279 1.7 9.6 0.00 0.00 0.00 59 1014.2
20260509004535 85 285 3.5 9.6 0.00 0.00 0.00 59 1014.1
20260509004011 85 288 3.5 8.7 0.00 0.00 0.00 60 1014.0
20260509003508 85 300 3.5 11.3 0.00 0.00 0.00 60 1013.9
20260509003029 85 301 5.2 11.3 0.00 0.00 0.00 60 1013.8
20260509002511 85 313 2.6 12.2 0.00 0.00 0.00 60 1013.7
20260509001526 86 299 4.3 12.2 0.00 0.00 0.00 59 1013.4
20260509001009 86 269 3.5 9.6 0.00 0.00 0.00 58 1013.4
20260509000506 86 286 4.3 9.6 0.00 0.00 0.00 58 1013.3
20260509000032 87 213 5.2 11.3 0.00 0.00 0.00 57 1013.2
20260508235507 87 296 5.2 11.3 0.00 0.00 0.00 56 1013.2
20260508235007 87 288 4.3 10.4 0.00 0.00 0.00 56 1013.0
20260508234507 87 278 5.2 10.4 0.00 0.00 0.00 56 1012.9
20260508234004 88 278 5.2 11.3 0.00 0.00 0.00 55 1012.8
20260508233506 88 268 5.2 11.3 0.00 0.00 0.00 55 1012.7
20260508233012 88 290 5.2 10.4 0.00 0.00 0.00 54 1012.7
20260508232504 88 281 6.1 12.2 0.00 0.00 0.00 55 1012.7
20260508232004 89 212 4.3 12.2 0.00 0.00 0.00 54 1012.7
20260508231516 89 266 4.3 9.6 0.00 0.00 0.00 54 1012.6
20260508231008 90 273 3.5 13.0 0.00 0.00 0.00 53 1012.5
20260508230503 90 252 6.1 13.0 0.00 0.00 0.00 53 1012.4
20260508230015 91 211 5.2 13.0 0.00 0.00 0.00 52 1012.2
20260508225507 91 244 5.2 10.4 0.00 0.00 0.00 51 1012.3
20260508225008 91 231 6.1 10.4 0.00 0.00 0.00 50 1012.2
20260508224008 91 238 3.5 7.8 0.00 0.00 0.00 50 1012.2
20260508223509 92 234 5.2 7.8 0.00 0.00 0.00 49 1012.1
20260508223009 92 245 1.7 7.0 0.00 0.00 0.00 50 1012.0
20260508222505 91 192 3.5 7.0 0.00 0.00 0.00 50 1012.0
20260508222005 91 234 3.5 7.0 0.00 0.00 0.00 50 1012.0
20260508221515 92 226 4.3 8.7 0.00 0.00 0.00 49 1012.0
20260508221004 92 193 2.6 8.7 0.00 0.00 0.00 47 1011.9
20260508220504 94 211 3.5 8.7 0.00 0.00 0.00 46 1012.0
20260508220020 95 228 4.3 8.7 0.00 0.00 0.00 43 1012.1
20260508215504 96 226 5.2 8.7 0.00 0.00 0.00 42 1012.0
20260508215007 98 178 4.3 8.7 0.00 0.00 0.00 40 1011.9
20260508214520 99 221 3.5 8.7 0.00 0.00 0.00 40 1011.9
20260508214006 100 276 5.2 10.4 0.00 0.00 0.00 38 1011.9
20260508213023 100 242 2.6 10.4 0.00 0.00 0.00 42 1011.8
20260508212513 101 178 6.1 10.4 0.00 0.00 0.00 38 1011.8
20260508212005 101 194 4.3 9.6 0.00 0.00 0.00 39 1011.9
20260508211511 101 209 4.3 9.6 0.00 0.00 0.00 37 1011.8
20260508211004 101 244 1.7 10.4 0.00 0.00 0.00 39 1011.8
20260508210505 102 217 4.3 10.4 0.00 0.00 0.00 37 1011.9
20260508210013 102 211 4.3 8.7 0.00 0.00 0.00 39 1011.9
20260508205506 101 199 3.5 7.0 0.00 0.00 0.00 38 1011.9
20260508205010 101 197 3.5 7.0 0.00 0.00 0.00 38 1012.0
20260508204510 101 171 3.5 7.0 0.00 0.00 0.00 38 1012.0
20260508204005 101 179 1.7 6.1 0.00 0.00 0.00 37 1012.2
20260508203508 100 176 1.7 6.1 0.00 0.00 0.00 39 1012.3
20260508202005 101 211 2.6 10.4 0.00 0.00 0.00 37 1012.6
20260508201508 101 265 4.3 10.4 0.00 0.00 0.00 39 1012.5
20260508201005 101 352 1.7 7.8 0.00 0.00 0.00 37 1012.5
20260508200504 101 246 3.5 7.8 0.00 0.00 0.00 40 1012.5
20260508200019 100 223 1.7 6.1 0.00 0.00 0.00 39 1012.7
20260508195504 100 180 0.9 6.1 0.00 0.00 0.00 39 1012.7
20260508195005 99 19 0.9 4.3 0.00 0.00 0.00 40 1012.8
20260508194514 98 143 0.9 5.2 0.00 0.00 0.00 41 1012.9
20260508194004 97 51 0.9 7.0 0.00 0.00 0.00 39 1013.0
20260508193505 98 261 1.7 7.0 0.00 0.00 0.00 39 1013.1
20260508193019 97 49 1.7 6.1 0.00 0.00 0.00 44 1013.1
20260508192512 95 82 1.7 6.1 0.00 0.00 0.00 46 1013.2
20260508190505 97 217 3.5 7.8 0.00 0.00 0.00 41 1013.6
20260508190009 97 244 1.7 7.8 0.00 0.00 0.00 45 1013.7
20260508185504 96 17 3.5 7.8 0.00 0.00 0.00 44 1013.8
20260508185004 96 295 0.9 7.8 0.00 0.00 0.00 42 1013.9
20260508184508 96 290 4.3 7.8 0.00 0.00 0.00 44 1014.0
20260508184004 95 329 1.7 7.0 0.00 0.00 0.00 45 1014.2
20260508183506 95 281 2.6 7.8 0.00 0.00 0.00 42 1014.4
20260508183022 96 9 0.9 7.8 0.00 0.00 0.00 43 1014.4
20260508182508 97 296 2.6 7.8 0.00 0.00 0.00 42 1014.5
20260508182005 96 224 1.7 7.0 0.00 0.00 0.00 45 1014.5
20260508181527 96 315 1.7 6.1 0.00 0.00 0.00 45 1014.7
20260508175005 96 254 2.6 7.8 0.00 0.00 0.00 47 1015.1
20260508174513 95 261 2.6 8.7 0.00 0.00 0.00 46 1015.1
20260508174006 95 244 3.5 8.7 0.00 0.00 0.00 47 1015.0
20260508173504 95 300 2.6 7.8 0.00 0.00 0.00 47 1015.0
20260508173032 94 229 2.6 7.0 0.00 0.00 0.00 47 1015.2
20260508172506 94 352 2.6 7.0 0.00 0.00 0.00 45 1015.3
20260508172007 94 240 0.0 6.1 0.00 0.00 0.00 50 1015.3
20260508171526 93 187 1.7 7.8 0.00 0.00 0.00 50 1015.4
20260508171007 93 310 0.9 7.8 0.00 0.00 0.00 48 1015.6
20260508170507 93 286 2.6 7.8 0.00 0.00 0.00 49 1015.6
20260508170027 93 321 3.5 7.8 0.00 0.00 0.00 51 1015.6
20260508165509 92 263 0.9 8.7 0.00 0.00 0.00 56 1015.6
20260508165009 92 281 2.6 8.7 0.00 0.00 0.00 49 1015.8
20260508164523 92 253 2.6 10.4 0.00 0.00 0.00 54 1016.0
20260508164009 91 282 4.3 10.4 0.00 0.00 0.00 51 1016.0
20260508163511 92 271 2.6 11.3 0.00 0.00 0.00 50 1016.0
20260508163022 91 334 3.5 11.3 0.00 0.00 0.00 49 1016.2
20260508162505 91 319 1.7 7.8 0.00 0.00 0.00 51 1016.3
20260508162007 91 315 2.6 7.8 0.00 0.00 0.00 52 1016.4
20260508161527 90 326 1.7 9.6 0.00 0.00 0.00 56 1016.5
20260508161007 90 322 4.3 9.6 0.00 0.00 0.00 54 1016.5
20260508160508 90 232 2.6 7.0 0.00 0.00 0.00 56 1016.5
20260508160028 90 351 1.7 7.0 0.00 0.00 0.00 56 1016.5
20260508155506 89 225 1.7 9.6 0.00 0.00 0.00 57 1016.7
20260508155011 89 285 1.7 9.6 0.00 0.00 0.00 55 1016.7
20260508154526 89 292 1.7 7.0 0.00 0.00 0.00 57 1016.7